Lawrence, KS

10:38 AM CST on January 22, 2018 (GMT -0600)
Lawrence Municipal

Weather History for KLWC - January, 2012

Change the Weather History Date:

Friday, January 27, 2012

  Actual Average Record
Temperature  
Mean Temperature 31 °F 30 °F  
Max Temperature 45 °F 41 °F 68 °F (2002)
Min Temperature 16 °F 19 °F -4 °F (1997)
Degree Days  
Heating Degree Days 34 35  
Month to date heating degree days 860 966  
Since 1 July heating degree days 2774 3009  
Cooling Degree Days 0 0  
Month to date cooling degree days 0 0  
Year to date cooling degree days 0 0  
Moisture  
Dew Point 24 °F    
Average Humidity 69    
Maximum Humidity 85    
Minimum Humidity 53    
Precipitation  
Precipitation T in 0.04 in 0.05 in (2013)
Month to date precipitation 0.01 0.84  
Year to date precipitation 0.01 0.84  
Sea Level Pressure  
Sea Level Pressure 30.01 in    
Wind  
Wind Speed 7 mph (North)    
Max Wind Speed 23 mph    
Max Gust Speed 29 mph    
Visibility 10 miles    
Events Rain    
T = Trace of Precipitation, MM = Missing Value Source: NWS Daily Summary

Daily Weather History Graph

Daily Weather History Graph

Search for Another Location

Airport or City:

Trip Planner

Search our weather history database for the weather conditions in past years. The results will help you decide how hot, cold, wet, or windy it might be!

Date:

Astronomy

Jan. 27, 2012 Rise Set
Actual Time 7:31 AM CST 5:35 PM CST
Civil Twilight 7:03 AM CST 6:04 PM CST
Nautical Twilight 6:31 AM CST 6:36 PM CST
Astronomical Twilight 5:59 AM CST 7:08 PM CST
Moon 9:29 AM CST (1/27) 10:24 PM CST (1/27)
Length of Visible Light 11h 00m
Length of Day
10h 03m
Waxing Crescent, 20% of the Moon is Illuminated
Jan 27
Waxing Crescent
Jan 30
First Quarter
Feb 7
Full
Feb 14
Last Quarter
Feb 21
New

Hourly Weather History & Observations

Time (CST) Temp. Windchill Dew Point Humidity Pressure Visibility Wind Dir Wind Speed Gust Speed Precip Events Conditions
12:52 AM 23.0 °F - 18.0 °F 81% 29.94 in 10.0 mi Calm Calm - N/A   Clear
1:52 AM 17.1 °F - 14.0 °F 88% 29.96 in 10.0 mi Calm Calm - N/A   Clear
2:52 AM 17.1 °F - 14.0 °F 88% 29.96 in 10.0 mi Calm Calm - N/A   Clear
3:52 AM 21.9 °F - 18.0 °F 85% 29.96 in 10.0 mi Calm Calm - N/A   Clear
4:52 AM 19.9 °F 14.9 °F 16.0 °F 85% 29.95 in 10.0 mi East 3.5 mph - N/A   Clear
5:52 AM 26.1 °F 18.4 °F 21.9 °F 84% 29.96 in 10.0 mi East 6.9 mph - N/A   Partly Cloudy
7:52 AM 28.9 °F - 25.0 °F 85% 29.96 in 9.0 mi Calm Calm - N/A   Overcast
8:52 AM 30.9 °F 27.5 °F 27.0 °F 85% 29.96 in 9.0 mi East 3.5 mph - N/A   Overcast
9:52 AM 36.0 °F 28.5 °F 28.0 °F 73% 29.96 in 10.0 mi SE 10.4 mph - N/A   Overcast
11:52 AM 39.9 °F 32.9 °F 28.9 °F 65% 29.97 in 10.0 mi SSE 11.5 mph - 0.00 in   Unknown
12:52 PM 39.0 °F 29.0 °F 30.0 °F 70% 29.88 in 9.0 mi ESE 20.7 mph 28.8 mph N/A Rain Light Rain
1:52 PM 41.0 °F 37.1 °F 32.0 °F 70% 29.86 in 10.0 mi SSE 5.8 mph - 0.00 in   Overcast
2:52 PM 42.1 °F 39.2 °F 30.9 °F 65% 29.91 in 10.0 mi NW 4.6 mph - N/A   Overcast
3:52 PM 45.0 °F 39.7 °F 28.9 °F 53% 29.94 in 10.0 mi NW 10.4 mph - N/A   Mostly Cloudy
4:52 PM 39.9 °F 32.5 °F 28.0 °F 63% 29.99 in 10.0 mi North 12.7 mph - N/A   Overcast
5:52 PM 37.0 °F 31.6 °F 27.0 °F 67% 30.04 in 10.0 mi NNW 6.9 mph - N/A   Mostly Cloudy
6:52 PM 33.1 °F 25.5 °F 26.1 °F 75% 30.09 in 10.0 mi NW 9.2 mph - N/A   Clear
7:52 PM 34.0 °F 28.0 °F 26.1 °F 73% 30.12 in 10.0 mi NW 6.9 mph - N/A   Partly Cloudy
8:52 PM 37.0 °F 28.1 °F 26.1 °F 65% 30.17 in 10.0 mi NNW 15.0 mph - N/A   Clear
9:52 PM 34.0 °F 25.5 °F 23.0 °F 64% 30.20 in 10.0 mi NNW 11.5 mph - N/A   Clear
10:52 PM 30.0 °F 21.7 °F 21.0 °F 69% 30.23 in 10.0 mi NW 9.2 mph - N/A   Clear
11:52 PM 28.9 °F 19.8 °F 19.0 °F 67% 30.25 in 10.0 mi NW 10.4 mph - N/A   Clear